Location: Unspecified
(0.0000°N, 0.0000°E)
Time: 13:02:03
(UTC+00:00)

Vanguard 2 Rocket - Pass Details

Date: 17 December 2018
Orbit: 554 x 3326 km, 32.9° (Epoch: 15 July)

Event Time Altitude Azimuth Distance (km) Brightness Sun altitude
Rises 18:13:00 0° 245° (WSW) 6,649 14.7 -3.9°
Reaches altitude 10° 18:19:32 10° 229° (SW) 5,988 12.6 -5.3°
Maximum altitude 18:32:06 20° 189° (S) 5,467 11.3 -8.2°
Drops below altitude 10° 18:44:53 10° 148° (SSE) 6,056 11.0 -11.1°
Sets 18:51:37 0° 132° (SE) 6,739 11.1 -12.7°
